TimeGMT,TemperatureF,Dew PointF,Humidity,Sea Level PressureIn,VisibilityMPH,Wind Direction,Wind SpeedMPH,Gust SpeedMPH,PrecipitationIn,Events,Conditions,WindDirDegrees,DateUTC
12:00 AM,44,44,98,29.51,1,East,11.2,,,,Mist,80,2013-03-09 00:00:00
12:00 AM,44.6,44.6,100,29.50,0.9,East,11.5,-,N/A,,Mostly Cloudy,80,2013-03-09 00:00:00
12:30 AM,44.6,42.8,93,29.50,0.9,East,11.5,-,N/A,,Mostly Cloudy,80,2013-03-09 00:30:00
1:00 AM,44.6,42.8,93,29.50,0.9,East,10.4,-,N/A,,Mostly Cloudy,80,2013-03-09 01:00:00
1:30 AM,44.6,42.8,93,29.50,0.9,East,10.4,-,N/A,,Mostly Cloudy,80,2013-03-09 01:30:00
2:00 AM,44.6,42.8,93,29.50,1.1,East,10.4,-,N/A,,Mostly Cloudy,80,2013-03-09 02:00:00
2:30 AM,44.6,42.8,93,29.50,1.1,East,11.5,-,N/A,,Mostly Cloudy,80,2013-03-09 02:30:00
3:00 AM,44.6,42.8,93,29.50,1.2,East,10.4,-,N/A,,Mostly Cloudy,80,2013-03-09 03:00:00
3:30 AM,44.6,42.8,93,29.50,1.2,East,11.5,-,N/A,,Mostly Cloudy,80,2013-03-09 03:30:00
4:00 AM,42.8,42.8,100,29.50,0.9,East,11.5,-,N/A,Rain,Light Rain,80,2013-03-09 04:00:00
4:30 AM,42.8,42.8,100,29.50,0.7,East,15.0,-,N/A,Rain,Light Rain,80,2013-03-09 04:30:00
5:00 AM,44.6,42.8,93,29.50,0.7,East,12.7,-,N/A,Rain,Light Rain,90,2013-03-09 05:00:00
5:30 AM,42.8,42.8,100,29.50,0.7,East,11.5,-,N/A,Rain,Light Rain,90,2013-03-09 05:30:00
6:00 AM,43,43,99,29.52,1,East,11.2,,,Rain,Light Rain,100,2013-03-09 06:00:00
6:00 AM,42.8,42.8,100,29.50,0.7,East,11.5,-,N/A,Rain,Light Rain,100,2013-03-09 06:00:00
6:30 AM,44.6,42.8,93,29.50,0.7,East,10.4,-,N/A,,Mostly Cloudy,90,2013-03-09 06:30:00
7:00 AM,42.8,42.8,100,29.53,0.7,East,12.7,-,N/A,Rain,Light Rain,90,2013-03-09 07:00:00
7:30 AM,42.8,42.8,100,29.53,0.7,East,13.8,-,N/A,,Light Drizzle,90,2013-03-09 07:30:00
8:00 AM,42.8,42.8,100,29.53,1.1,East,10.4,-,N/A,,Mostly Cloudy,90,2013-03-09 08:00:00
8:30 AM,42.8,42.8,100,29.56,0.9,East,9.2,-,N/A,,Mostly Cloudy,90,2013-03-09 08:30:00
9:00 AM,42.8,42.8,100,29.56,0.7,East,12.7,-,N/A,,Mostly Cloudy,80,2013-03-09 09:00:00
9:30 AM,42.8,42.8,100,29.56,1.2,East,11.5,-,N/A,,Mostly Cloudy,80,2013-03-09 09:30:00
10:00 AM,42.8,42.8,100,29.56,1.2,East,12.7,-,N/A,Rain,Light Rain,80,2013-03-09 10:00:00
10:30 AM,42.8,42.8,100,29.56,1.1,East,13.8,-,N/A,,Mostly Cloudy,80,2013-03-09 10:30:00
11:00 AM,42.8,42.8,100,29.59,1.2,East,13.8,-,N/A,,Mostly Cloudy,80,2013-03-09 11:00:00
11:30 AM,42.8,42.8,100,29.59,1.4,East,12.7,-,N/A,,Mostly Cloudy,80,2013-03-09 11:30:00
12:00 PM,42.8,42.8,100,29.59,1.2,East,12.7,-,N/A,,Mostly Cloudy,80,2013-03-09 12:00:00
12:30 PM,42.8,42.8,100,29.59,1.4,East,15.0,-,N/A,,Mostly Cloudy,80,2013-03-09 12:30:00
1:00 PM,42.8,42.8,100,29.59,1.4,East,15.0,-,N/A,,Mostly Cloudy,90,2013-03-09 13:00:00
1:30 PM,42.8,41.0,93,29.59,1.2,East,15.0,-,N/A,,Mostly Cloudy,80,2013-03-09 13:30:00
2:00 PM,42.8,41.0,93,29.62,1.2,ENE,15.0,-,N/A,,Mostly Cloudy,70,2013-03-09 14:00:00
2:30 PM,42.8,41.0,93,29.62,1.2,East,16.1,-,N/A,,Mostly Cloudy,80,2013-03-09 14:30:00
3:00 PM,41.0,41.0,100,29.62,1.1,ENE,15.0,-,N/A,,Light Drizzle,70,2013-03-09 15:00:00
3:30 PM,41.0,41.0,100,29.62,0.9,ENE,15.0,-,N/A,,Light Drizzle,70,2013-03-09 15:30:00
4:00 PM,41.0,39.2,93,29.62,0.9,ENE,19.6,-,N/A,,Light Drizzle,60,2013-03-09 16:00:00
4:30 PM,41.0,39.2,93,29.62,1.1,ENE,16.1,-,N/A,,Light Drizzle,70,2013-03-09 16:30:00
5:00 PM,41.0,39.2,93,29.62,1.0,ENE,16.1,-,N/A,,Light Drizzle,60,2013-03-09 17:00:00
5:30 PM,39.2,39.2,100,29.65,1.1,ENE,16.1,-,N/A,,Light Drizzle,60,2013-03-09 17:30:00
6:00 PM,40,39,94,29.68,1,ENE,15.7,,,Rain,Light Drizzle,70,2013-03-09 18:00:00
6:00 PM,39.2,39.2,100,29.65,1.4,ENE,17.3,-,N/A,,Light Drizzle,70,2013-03-09 18:00:00
6:30 PM,39.2,39.2,100,29.65,1.9,ENE,15.0,-,N/A,,Light Drizzle,60,2013-03-09 18:30:00
7:00 PM,39.2,39.2,100,29.65,2.8,ENE,15.0,-,N/A,,Light Drizzle,70,2013-03-09 19:00:00
7:30 PM,39.2,39.2,100,29.68,3.1,ENE,17.3,-,N/A,,Light Drizzle,70,2013-03-09 19:30:00
8:00 PM,39.2,37.4,93,29.68,6.2,ENE,17.3,-,N/A,,Mostly Cloudy,60,2013-03-09 20:00:00
8:30 PM,39.2,37.4,93,29.68,6.2,ENE,15.0,-,N/A,,Mostly Cloudy,60,2013-03-09 20:30:00
9:00 PM,39.2,37.4,93,29.68,6.2,ENE,16.1,-,N/A,,Mostly Cloudy,70,2013-03-09 21:00:00
9:30 PM,39.2,37.4,93,29.68,6.2,ENE,17.3,-,N/A,,Mostly Cloudy,70,2013-03-09 21:30:00
10:00 PM,39.2,37.4,93,29.68,6.2,ENE,15.0,-,N/A,,Mostly Cloudy,70,2013-03-09 22:00:00
10:30 PM,39.2,37.4,93,29.71,6.2,East,12.7,-,N/A,,Mostly Cloudy,80,2013-03-09 22:30:00
11:00 PM,39.2,37.4,93,29.71,6.2,ENE,17.3,-,N/A,,Mostly Cloudy,70,2013-03-09 23:00:00
11:30 PM,39.2,35.6,87,29.71,6.2,ENE,18.4,-,N/A,,Mostly Cloudy,70,2013-03-09 23:30:00